#timestamp,LO_Frequency,Hit,StdDev 
1526896815.2,286047002.3,N
1526896835.1,286047001.7,N
1526896836.0,286047001.7,N
1526896855.8,286047001.9,N
1526896875.6,286047001.6,N
1526896895.5,286047001.7,N
1526896915.3,286047004.4,Y
1526896935.1,286047002.5,P
1526896955.9,286047002.1,P
1526896975.7,286047002.0,P
1526896995.5,286047001.9,Y
1526897015.4,286047000.3,P
1526897035.2,286047000.5,N
1526897055.0,286046999.9,N
1526897055.9,286046999.9,N
1526897075.8,286047002.3,N
1526897095.6,286047002.1,N
1526897115.4,286047002.6,N
1526897135.3,286047002.5,N
1526897155.1,286047001.4,N
1526897156.0,286047001.4,N
1526897175.8,286047001.5,N
1526897195.7,286047003.9,Y
1526897215.5,286046999.8,P
1526897235.3,286047002.1,N
1526897255.2,286047002.1,N
1526897275.9,286047001.6,N
1526897295.7,286047001.4,N
1526897315.6,286047003.7,Y
1526897335.4,286047002.2,P
1526897355.2,286047002.1,P
1526897375.0,286047001.5,P
1526897376.0,286047001.5,Y
1526897395.8,286047002.5,P
1526897415.6,286046999.9,N
1526897435.4,286047002.3,N
1526897455.3,286047002.6,N
1526897475.1,286046999.8,N
1526897495.8,286047001.9,N
1526897515.7,286047001.8,N
1526897535.5,286047001.3,N
1526897555.3,286047001.5,N
1526897575.2,286047003.9,Y
1526897595.0,286047001.7,P
1526897595.9,286047001.7,P
1526897615.7,286047001.7,P
1526897635.6,286047004.4,Y
1526897655.4,286047002.4,P
1526897675.2,286047000.3,N
1526897695.1,286047002.7,P
1526897696.0,286047002.7,N
1526897715.8,286047002.8,Y
1526897735.6,286047001.2,P
1526897755.5,286047000.7,N
1526897775.3,286047000.9,N
1526897795.1,286047000.8,N
1526897815.9,286047001.0,N
1526897835.7,286047000.4,N
1526897855.5,286046999.9,N
1526897875.4,286047000.1,N
1526897895.2,286047002.8,Y
1526897915.0,286046999.8,P
1526897915.9,286046999.8,N
1526897935.8,286046999.9,N
1526897955.6,286047002.4,Y
1526897975.4,286047002.5,P
1526897995.3,286046999.7,N
1526898015.1,286047001.9,N
1526898035.8,286047001.7,N
1526898055.7,286047004.4,Y
1526898075.5,286047002.2,P
1526898095.3,286047002.4,P
1526898115.2,286047002.2,P
1526898135.9,286047002.2,Y
1526898155.7,286047000.9,P
1526898175.6,286047000.4,N
1526898195.4,286047000.4,N
1526898215.2,286047002.7,Y
1526898235.1,286047000.8,P
1526898236.0,286047000.8,P
1526898255.8,286047000.6,P
1526898275.6,286046999.7,N
1526898295.5,286046999.9,N
1526898315.3,286046999.7,N
1526898335.1,286047002.6,Y
1526898355.9,286047002.5,P
1526898375.7,286047002.0,N
1526898395.5,286047001.5,N
1526898415.4,286047002.5,Y
1526898435.2,286047000.2,P
1526898455.0,286046999.7,N
1526898455.9,286046999.7,N
1526898475.8,286047002.3,N
1526898495.6,286046999.7,N
1526898515.4,286047002.0,N
1526898535.3,286047001.6,N
1526898555.1,286047001.8,N
1526898556.0,286047001.8,N
1526898575.8,286047001.8,N
1526898595.7,286047001.3,N
1526898615.5,286047001.9,N
1526898635.3,286047002.5,N
1526898655.2,286047004.3,Y
1526898675.9,286047002.0,P
1526898695.7,286047002.5,P
1526898715.5,286047002.1,P
1526898735.4,286047001.6,Y
1526898755.2,286046999.8,P
1526898775.0,286046999.7,N
1526898776.0,286046999.7,N
1526898795.8,286046999.9,N
1526898815.6,286047000.1,N
1526898835.4,286047002.2,N
1526898855.3,286047002.4,N
1526898875.1,286047002.6,N
1526898895.8,286047002.2,N
1526898915.7,286047002.0,N
1526898935.5,286047002.0,N
1526898955.3,286047001.3,N
1526898975.2,286047001.9,N
1526898995.9,286047001.6,N
1526899015.7,286047004.3,Y
1526899035.6,286047000.1,P
1526899055.4,286047000.2,N
1526899075.2,286047000.1,N
1526899095.1,286046999.8,N
1526899096.0,286046999.8,N
1526899115.8,286047000.1,N
1526899135.6,286047000.1,N
1526899155.4,286047000.1,N
1526899175.3,286047002.7,Y
1526899195.1,286047000.4,P
1526899215.9,286047001.0,P
1526899235.7,286047000.4,N
1526899255.5,286047001.2,Y
1526899275.4,286047000.8,P
1526899295.2,286046998.4,P
1526899315.0,286046998.8,N
1526899315.9,286046998.8,N
1526899335.7,286046999.0,N
1526899355.6,286046999.1,N
1526899375.4,286046999.5,N
1526899395.3,286046996.6,Y
1526899415.1,286046998.9,P
1526899416.0,286046998.9,P
1526899435.8,286046996.5,P
1526899455.6,286046996.7,N
1526899475.5,286046997.2,N
1526899495.3,286046999.6,N
1526899515.1,286046996.6,N
1526899535.9,286046996.6,N
1526899555.7,286046999.6,N
1526899575.5,286046997.4,N
1526899595.4,286046996.6,N
1526899615.2,286046997.7,N
1526899635.0,286046998.0,N
1526899635.9,286046998.0,N
1526899655.8,286046997.1,N
1526899675.6,286046995.3,Y
1526899695.4,286046996.9,P
1526899715.3,286046999.2,N
1526899735.1,286046997.4,N
1526899736.0,286046997.4,Y
1526899755.8,286046998.7,P
1526899775.7,286046998.4,P
1526899795.5,286046996.6,P
1526899815.3,286046999.6,N
1526899835.2,286046996.6,Y
1526899855.9,286046998.8,P
1526899875.7,286046999.0,P
1526899895.6,286046999.5,N
1526899915.4,286046996.6,Y
1526899935.2,286046999.4,P
1526899955.1,286046999.5,N
1526899956.0,286046999.5,N
1526899975.8,286046999.6,N
1526899995.6,286046996.6,Y
1526900015.5,286046996.9,P
1526900035.3,286046997.3,N
1526900055.1,286046997.8,N
1526900075.9,286046995.0,Y
1526900095.7,286046996.6,P
1526900115.5,286046996.5,P
1526900135.4,286046997.6,P
1526900155.2,286046997.1,Y
1526900175.0,286046998.1,P
1526900175.9,286046998.1,P
1526900195.8,286046998.2,P
1526900215.6,286046999.3,N
1526900235.4,286046999.4,N
1526900255.3,286046997.7,N
1526900275.1,286046997.8,N
1526900276.0,286046997.8,Y
1526900295.8,286046996.6,P
1526900315.7,286046995.0,P
1526900335.5,286046996.8,N
1526900355.3,286046995.2,Y
1526900375.2,286046999.3,P
1526900395.9,286046999.2,N
